Back to catalog

COSMOS 1159

AliveMilitaryLEO
NORAD 11694·PAYLOAD·🇷🇺 Russia

Launched Feb 11, 1980 from Plesetsk Cosmodrome

Loading…

Next Passes (next 24 hours)

TLE

FreshSource: Space-Track

Epoch: Sep 14, 2026, 13:42 UTC

1 11694U 80012D   26257.57112453 -.00000007  00000-0  55281-4 0  9995
2 11694  74.0215 197.3987 0017632 141.9119 329.5812 12.50128563126148

Track COSMOS 1159 in real time with AllMySat

Download on the App Store